Location: Poprad
(49.0500°N, 20.3000°E)
Time: 00:33:24
(UTC+02:00)

ISS - Pass Details

Date: 02 April 2019
Orbit: 408 x 410 km, 51.6° (Epoch: 22 April)

Event Time Altitude Azimuth Distance (km) Brightness Sun altitude
Rises 20:56:56 0° 290° (WNW) 2,339 1.7 -17.2°
Reaches altitude 10° 20:59:02 10° 288° (WNW) 1,475 0.2 -17.5°
Maximum altitude 21:02:20 68° 204° (SSW) 443 -3.8 -17.9°
Enters shadow 21:02:45 58° 156° (SSE) 479 -3.8 -18.0°
